This is the latest recevied weather packets stored in our database for station/object IA5FYI-13. If no packets are shown the sender has not sent any weather packets the latest 10 day(s).
| Time | Temp. | Humidity | Pressure | Rain* | Wind** | Luminosity | Snow |
|---|---|---|---|---|---|---|---|
| 1777705813 | 17.78° C | 38% | 1024 hPa | 0 mm | - | - | - |
| 1777705510 | 17.78° C | 37% | 1023.4 hPa | 0 mm | - | - | - |
| 1777705231 | 17.78° C | 37% | 1023.7 hPa | 0 mm | - | - | - |
| 1777704910 | 17.78° C | 37% | 1024 hPa | 0 mm | - | - | - |
| 1777704613 | 17.78° C | 38% | 1023.7 hPa | 0 mm | - | - | - |
| 1777704311 | 17.78° C | 37% | 1023.7 hPa | 0 mm | - | - | - |
| 1777704012 | 17.78° C | 39% | 1023.7 hPa | 0 mm | - | - | - |
| 1777703708 | 17.78° C | 41% | 1023.7 hPa | 0 mm | - | - | - |
| 1777703423 | 17.78° C | 40% | 1023.7 hPa | 0 mm | - | - | - |
| 1777703109 | 17.22° C | 40% | 1023.7 hPa | 0 mm | - | - | - |
| 1777702813 | 17.22° C | 41% | 1023.7 hPa | 0 mm | - | - | - |
| 1777702513 | 17.22° C | 41% | 1023.7 hPa | 0 mm | - | - | - |
| 1777702212 | 17.22° C | 41% | 1023.4 hPa | 0 mm | - | - | - |
| 1777701909 | 17.22° C | 45% | 1023.7 hPa | 0 mm | - | - | - |
| 1777701632 | 17.22° C | 44% | 1023.7 hPa | 0 mm | - | - | - |
| 1777701308 | 17.22° C | 43% | 1023.7 hPa | 0 mm | - | - | - |
| 1777701012 | 17.22° C | 42% | 1023.7 hPa | 0 mm | - | - | - |
| 1777700712 | 17.22° C | 44% | 1024 hPa | 0 mm | - | - | - |
| 1777700412 | 17.22° C | 44% | 1023.7 hPa | 0 mm | - | - | - |
| 1777700109 | 17.22° C | 45% | 1023.7 hPa | 0 mm | - | - | - |
| 1777699822 | 16.11° C | 46% | 1023.4 hPa | 0 mm | - | - | - |
| 1777699509 | 16.11° C | 44% | 1023.4 hPa | 0 mm | - | - | - |
| 1777699212 | 15° C | 46% | 1023.4 hPa | 0 mm | - | - | - |
| 1777698913 | 15° C | 46% | 1023.4 hPa | 0 mm | - | - | - |
| 1777698612 | 15° C | 47% | 1023.4 hPa | 0 mm | - | - | - |
* Rain latest hour (hover to see other rain measurements)
** Current wind speed in m/s (hover to see current wind gust speed)